Flag for Spain Weather past 2 weeks in Alicante, Spain

Now
63 °F

Clear.


Feels Like: 63 °F
Forecast: 65 / 81 °F
Wind: 5 mph from West

Location: Alicante / El Altet

Current Time: Oct 20, 2014 at 6:52:08 AM

Latest Report: Oct 20, 2014 at 5:00 AM


Visibility: 10 mi

Pressure: 30.15 "Hg

Humidity: 83%

Dew point: 57 °F

Location of AlicanteLocation

Historic Weather in Alicante — Graph

°F

Alicante temperature yesterday

Maximum temperature yesterday: 81 °F (at 12:30 PM)
Minimum temperature yesterday: 64 °F (at 8:30 AM)
Average temperature yesterday: 73 °F

Past Weeks' High & Low Weather Summary

 TemperatureHumidityPressure
High86 °F (Oct 9, 12:00 PM)100% (Oct 6, 6:30 AM)30.18 "Hg (Oct 6, 6:30 AM)
Low55 °F (Oct 13, 7:00 AM)31% (Oct 9, 12:00 PM)29.74 "Hg (Oct 14, 5:30 AM)
Average71 °F70%29.94 "Hg
* Reported Oct 5 5:00 AM — Oct 20 5:00 AM, Alicante, Weather by CustomWeather, © 2014

Note: Actual official high and low records may vary slightly from our data, if they occured in-between our weather recording intervals... More about our weather records

Advertising

Alicante weather history for previous 24 hours

 ConditionsComfort  
Time TempWeatherWind HumidityBarometerVisibility
5:00 AM
Oct 20
63 °FClear.5 mph83%30.15 "Hg10 mi
4:00 AM63 °FClear.5 mph83%30.18 "Hg10 mi
3:30 AM63 °FClear.3 mph83%30.18 "Hg10 mi
3:00 AM64 °FClear.2 mph83%30.18 "Hg10 mi
2:30 AM64 °FClear.2 mph83%30.18 "Hg10 mi
2:00 AM64 °FClear.5 mph88%30.18 "Hg10 mi
1:30 AM63 °FClear.1 mph88%30.18 "Hg10 mi
1:00 AM66 °FClear.No wind83%30.18 "Hg10 mi
12:30 AM66 °FClear.6 mph83%30.18 "Hg10 mi
12:00 AM66 °FClear.No wind83%30.18 "Hg10 mi
11:30 PM
Oct 19
68 °FClear.3 mph78%30.18 "Hg10 mi
11:00 PM68 °FClear.1 mph83%30.18 "Hg10 mi
10:30 PM72 °FPassing clouds.3 mph78%30.18 "HgN/A
10:00 PM72 °FClear.2 mph83%30.18 "Hg10 mi
9:30 PM72 °FPassing clouds.3 mph78%30.18 "HgN/A
9:00 PM72 °FPassing clouds.3 mph78%30.18 "HgN/A
8:30 PM73 °FPassing clouds.3 mph78%30.18 "HgN/A
8:00 PM73 °FPassing clouds.6 mph78%30.15 "HgN/A
7:30 PM73 °FSunny.9 mph78%30.15 "Hg10 mi
7:00 PM75 °FPassing clouds.9 mph74%30.15 "HgN/A
6:30 PM75 °FSunny.12 mph74%30.15 "Hg10 mi
6:00 PM75 °FSunny.12 mph74%30.15 "Hg10 mi
5:30 PM77 °FPassing clouds.13 mph69%30.15 "HgN/A
5:00 PM77 °FSunny.13 mph65%30.15 "Hg10 mi
4:30 PM79 °FPassing clouds.13 mph61%30.15 "HgN/A
4:00 PM79 °FSunny.13 mph61%30.15 "Hg10 mi
3:30 PM79 °FPassing clouds.14 mph58%30.15 "HgN/A
3:00 PM79 °FPassing clouds.15 mph58%30.18 "HgN/A
2:30 PM79 °FSunny.14 mph61%30.18 "Hg10 mi
2:00 PM79 °FSunny.14 mph58%30.18 "Hg10 mi
1:30 PM79 °FPassing clouds.13 mph58%30.18 "HgN/A
1:00 PM79 °FPassing clouds.13 mph58%30.18 "HgN/A
12:30 PM81 °FPassing clouds.12 mph51%30.18 "HgN/A
12:00 PM79 °FSunny.10 mph58%30.18 "Hg10 mi
11:30 AM79 °FSunny.7 mph54%30.18 "Hg10 mi
11:00 AM77 °FSunny.1 mph61%30.18 "Hg10 mi
10:30 AM75 °FSunny.No wind57%30.18 "Hg10 mi
10:00 AM72 °FSunny.1 mph57%30.15 "Hg10 mi
9:30 AM70 °FSunny.No wind57%30.15 "Hg10 mi
9:00 AM64 °FClear.2 mph73%30.15 "Hg10 mi
8:30 AM64 °FClear.5 mph68%30.12 "Hg10 mi
8:00 AM66 °FClear.2 mph64%30.12 "Hg10 mi
7:30 AM73 °FClear.5 mph44%30.12 "Hg10 mi
6:30 AM72 °FClear.2 mph50%30.12 "Hg10 mi
6:00 AM73 °FPassing clouds.3 mph47%30.12 "HgN/A
Weather by CustomWeather, © 2014

See weather overviewHow to use our weather pages